Regional Weather Roundup
Issued by NWS

Home | Current Version | Previous Version | Graphics & Text | Print | Product List | Glossary On
Versions: 1 2 3 4 5 6 7 8 9 10 11 12 13 14 15 16 17 18 19 20 21 22 23 24 25 26 27 28 29 30 31 32 33 34 35 36 37 38 39 40 41 42 43 44 45 46 47 48 49 50
000
ASUS43 KLOT 032201
RWRIL

ILLINOIS REGIONAL WEATHER ROUNDUP
NATIONAL WEATHER SERVICE CHICAGO/ROMEOVILLE IL
500 PM CDT THU SEP 03 2015

NOTE: "FAIR" INDICATES FEW OR NO CLOUDS BELOW 12,000 FEET WITH NO
SIGNIFICANT WEATHER AND/OR OBSTRUCTIONS TO VISIBILITY.

* THESE STATIONS ARE NOT UNDER NWS QUALITY CONTROL. THEY ALSO MAY NOT
  REPORT WEATHER SUCH AS PRECIPITATION OR FOG.

ILZ001-002-007-009-015-016-024-032300-
NORTHWEST ILLINOIS

CITY           SKY/WX    TMP DP  RH WIND       PRES   REMARKS
MOLINE         SUNNY     92  68  45 W9        29.88S HX  96
STERLING*      PTSUNNY   91  73  55 W10       29.87S HX 100
$$

ILZ003-004-008-010-011-017-018-032300-
NORTH CENTRAL ILLINOIS

CITY           SKY/WX    TMP DP  RH WIND       PRES   REMARKS
ROCKFORD       MOSUNNY   89  72  56 W8        29.90F HX  96
FREEPORT*      SUNNY     87  73  62 SW6       29.92S HX  93
$$

ILZ005-006-012>014-019>023-032300-
NORTHEAST ILLINOIS

CITY           SKY/WX    TMP DP  RH WIND       PRES   REMARKS
CHICAGO-OHARE  MOSUNNY   89  69  51 W15       29.87F HX  93
CHICAGO-MIDWAY MOSUNNY   92  67  43 W14       29.87F HX  95
AURORA         PTSUNNY   88  73  61 W7        29.90F HX  95
WAUKEGAN       MOSUNNY   81  71  71 N8        29.88R HX  85
DUPAGE AIRPORT MOSUNNY   89  70  53 W10       29.89F HX  94
WHEELING       MOSUNNY   90  70  51 W9        29.88F HX  95
NORTHERLY ISL    N/A     89  63  41 SW10        N/A  HX  90
$$

LMZ740>746-032300-
SOUTHERN LAKE MICHIGAN

STATION/POSITION SKY/WX   TEMP    WIND        PRES    VSBY  WAVE
                          AIR SEA DIR/SP/G                  HT/PER
                          (F)     (DEG/KT/KT) (MB)    (MI)  (FT/S)
SOUTHERN BUOY              71 72   10/ 14/ 16 1011.8R
WILMETTE HARBOR            80 64  260/  4/  4   N/A           0
HARRISON CRIB              88     220/ 16/ 20   N/A
BURNHAM HARBOR             89     300/ 11/ 14   N/A
CALUMET HARBOR             90     230/  8/ 14   N/A
BURNS HARBOR               84     260/ 11/ 14 1012.2
MICHIGAN CITY              83     220/  6/  7   N/A
MICHIGAN CITY 6N           80 77  230/  4/  4   N/A           0
ST. JOSEPH                 78 74  250/  6/  6   N/A           1
$$

ILZ025>027-034>036-040-047-049-050-058-095>099-032300-
WEST-CENTRAL ILLINOIS

CITY           SKY/WX    TMP DP  RH WIND       PRES   REMARKS
QUINCY         SUNNY     92  64  39 SW7       29.91F HX  93
$$

ILZ028>032-037-038-041>044-048-051>054-059>061-032300-
CENTRAL ILLINOIS

CITY           SKY/WX    TMP DP  RH WIND       PRES   REMARKS
DECATUR        PTSUNNY   92  66  42 S12       29.92F HX  94
PEORIA         SUNNY     94  65  38 SW12      29.90F HX  96
SPRINGFIELD    MOSUNNY   94  66  39 SW8       29.91F HX  97
TAYLORVILLE    NOT AVBL
$$

ILZ033-039-045-046-055>057-062-063-032300-
EAST-CENTRAL ILLINOIS

CITY           SKY/WX    TMP DP  RH WIND       PRES   REMARKS
CHAMPAIGN      MOSUNNY   91  66  43 SW7       29.93S HX  93
MATTOON        MOSUNNY   91  63  39 SW7       29.93F HX  92
$$

ILZ079-100>102-032300-
SOUTHWEST ILLINOIS

CITY           SKY/WX    TMP DP  RH WIND       PRES   REMARKS
ALTON          MOSUNNY   90  64  43 SW7       29.93F HX  91
BELLEVILLE     SUNNY     91  70  48 VRB1      29.92F HX  96
CAHOKIA*       MOSUNNY   93  67  42 SE7       29.92F HX  96
$$

ILZ064>066-069>071-074>076-080>082-084>086-088>090-092>094-032300-
SOUTH-CENTRAL ILLINOIS

CITY           SKY/WX    TMP DP  RH WIND       PRES   REMARKS
CARBONDALE     SUNNY     89  66  46 S6        29.94F HX  91
MARION         MOSUNNY   91  66  43 SW8       29.95F HX  94
MT. VERNON     SUNNY     90  66  45 S7        29.95S HX  92
$$

ILZ067-068-072-073-078-083-087-091-032300-
SOUTHEAST ILLINOIS

CITY           SKY/WX    TMP DP  RH WIND       PRES   REMARKS
LAWRENCEVILLE  SUNNY     92  65  40 S5        29.93F HX  94
ROBINSON*      PTSUNNY   90  65  43 SW5       29.94S HX  92
$$

ABBREVIATIONS USED IN REMARKS
   TC - TEMPERATURE IN CELSIUS
  WCI - WIND CHILL INDEX
   HX - HEAT INDEX
  VSB - VISIBILITY
$$



USA.gov is the U.S. government's official web portal to all federal, state and local government web resources and services.